CZ-6A DEB

Satellite information

Favourite Embed

Satellite Type and Status

DEBRISIN ORBIT

Key statistics

Satellite CZ-6A DEB at a glance.

Uptime

1030

Days in orbit

Revolutions

≈ 14.6

Per day

Orbit

SSO

Sun Synchronous Orbit

Inclination

98.9

Latest

Satellite identification and parameters

Extended collection of information and parameters for CZ-6A DEB.

Object identification

Identified? True

Debris? True

Object name: CZ-6A DEB

International designator: 2022-151AV

Object number (NORAD): 54302

Object ID (CCSDS): 54302

Country: PEOPLES REPUBLIC OF CHINA (PRC)

Current information (Y/N): Y

RCS size: SMALL

Orbital parameters

Period: 98.328 minutes

Inclination: 98.8745 deg

SMA: 7056.871 km

Apoapsis: 753.577 km

Periapsis: 603.895 km

RAAN: 338.7174 deg

Eccentricy: 0.01060536

Argument of periapsis: 2.2376 deg

Mean anomaly: 357.9277 deg

Mean motion: 14.64483528 rev/day

Mean motion (dot): 0.00007325 rev/day2

B* drag term: 0.0012831994 1/REarth

Two-line elements (TLE)

Creation date: Sept. 6, 2025, 2:09 a.m.

Reference frame: TEME

Reference center: EARTH

Epoch: Sept. 5, 2025, 5:48 p.m. UTC

TLE line 0: 0 CZ-6A DEB

TLE line 1: 1 54302U 22151AV 25248.74225666 .00007325 00000-0 12832-2 0 9999

TLE line 2: 2 54302 98.8745 338.7174 0106054 2.2376 357.9277 14.64483528148981

Live tracking on map

Real-time ground track for satellite CZ-6A DEB.

In-orbit conjunctions

A list of the most updated potential collisions computed for object CZ-6A DEB.

Target Orbit TCA Probability of collision Miss distance Type
COSMOS 2251 DEB LEO 2025-05-28 00:38:45 0.0001547835 196.0 (m) DEBRIS
COSMOS 1190 LEO 2024-09-05 18:45:58 0.0001154372 728.0 (m) PAYLOAD
LIBERTAD 1 SSO 2024-06-06 06:01:47 0.0004161848 826.0 (m) PAYLOAD

Associated space launch

Chinese satellite reported for atmospheric/ocean/environmental/spatial parameter research purposes, details TBD.

CZ-6A DEB was lifted into orbit during the mission ‘Long March 6A | Yunhai 3’, on board a Long March 6A space rocket.

The launch took place on Nov. 11, 2022, 10:52 p.m. from Launch Complex 9A.

For more information about the launch, click the button.

Launch to space Long March 6A | Yunhai 3
Long March 6A | Yunhai 3

Agency: N/A

Status: Launch Successful

Launch date: Nov. 11, 2022, 10:52 p.m. UTC

Rocket: Long March 6A

Launch pad: Launch Complex 9A

Location: Taiyuan Satellite Launch Center, People's Republic of China

...

Latest news about this satellite

There are no fresh news available about this satellite. Check back as we update our databases every day.


Newsletter sign-up

Weekly statistics, charts and insights to help you stay on top of the space industry.